Regional Weather Roundup
Issued by NWS Nashville, TN

Home | Current Version | Previous Version | Text Only | Print | Product List | Glossary On
Versions: 1 2 3 4 5 6 7 8 9 10 11 12 13 14 15 16 17 18 19 20 21 22 23 24 25 26 27 28 29 30 31 32 33 34 35 36 37 38 39 40 41 42 43 44 45 46 47 48 49 50
000
ASUS44 KOHX 240110
RWROHX
MIDDLE TENNESSEE HOURLY WEATHER ROUNDUP
NATIONAL WEATHER SERVICE NASHVILLE TN
800 PM CDT TUE MAY 23 2017

NOTE: "FAIR" INDICATES FEW OR NO CLOUDS BELOW 12,000 FEET WITH
NO SIGNIFICANT WEATHER AND/OR OBSTRUCTIONS TO VISIBILITY.

* THESE REPORTS ARE NOT UNDER NWS QUALITY CONTROL AND MAY NOT
  REPORT WEATHER SUCH AS PRECIPITATION AND FOG.


TNZ005>011-023>034-057-059-062>066-078-080-240200
...NORTHERN MIDDLE TENNESSEE...

CITY           SKY/WX    TMP DP  RH WIND       PRES   REMARKS
CLARKSVILLE    PTCLDY    68  52  56 N6        29.65R
CROSSVILLE     LGT RAIN  65  62  90 CALM      29.70R
GALLATIN       CLEAR     68  63  83 CALM      29.67R
DICKSON        CLEAR     68  56  65 CALM      29.66R
LEBANON        CLEAR     69  63  81 CALM      29.64S
NASHVILLE      MOCLDY    72  57  59 NW7       29.66R
PORTLAND       CLEAR     70  54  56 W6        29.65R
SMYRNA         PTCLDY    70  59  68 NW3       29.66R
SPARTA         CLOUDY    68  64  88 CALM      29.65S
SPRINGFIELD    CLEAR     70  54  56 NW3       29.65R
WEST NASHVILLE CLEAR     72  59  64 CALM      29.64R
$$
TNZ056-058-060-061-075>077-079-093>097-240200
...SOUTHERN MIDDLE TENNESSEE...

CITY           SKY/WX    TMP DP  RH WIND       PRES   REMARKS
COLUMBIA       CLEAR     72  59  64 CALM      29.64R
FAYETTEVILLE   PTCLDY    72  61  68 W3        29.66R
MCMINNVILLE    PTCLDY    66  63  88 CALM      29.67S
PULASKI        PTCLDY    66  64  94 CALM      29.66R
SHELBYVILLE    CLEAR     70  61  73 CALM      29.65S
TULLAHOMA      CLEAR     70  61  73 W3        29.67S
WINCHESTER     MOCLDY    66  61  82 SE6         N/A
$$


...KEY TO REMARKS...
VSB - VISIBILITY IN MILES
WCI - WIND CHILL INDEX
HX  - HEAT INDEX




USA.gov is the U.S. government's official web portal to all federal, state and local government web resources and services.